Weather History for Fort Yukon, AK

Change the Weather History Date:

Wednesday, January 23, 2013

  Actual Average Record
Temperature  
Mean Temperature -8 °F -  
Max Temperature -2 °F -6 °F 26 °F (2000)
Min Temperature -14 °F -19 °F -50 °F (2011)
Degree Days  
Heating Degree Days 73    
Moisture  
Dew Point -21 °F    
Average Humidity 54    
Maximum Humidity 64    
Minimum Humidity 49    
Precipitation  
Precipitation 0.00 in - - ()
Sea Level Pressure  
Sea Level Pressure 29.99 in    
Wind  
Wind Speed 13 mph (ENE)    
Max Wind Speed 20 mph    
Max Gust Speed 31 mph    
Visibility 10 miles    
Events      
Averages and records for this station are not official NWS values.
T = Trace of Precipitation, MM = Missing Value Source: NWS Daily Summary

Daily Weather History Graph

Daily Weather History Graph

Search for Another Location

Airport:

Trip Planner

Search our weather history database for the weather conditions in past years. The results will help you decide how hot, cold, wet, or windy it might be!

Date:

Astronomy

Jan. 23, 2013 Rise Set
Actual Time 10:13 AM AKST 3:33 PM AKST
Civil Twilight 9:00 AM AKST 4:46 PM AKST
Nautical Twilight 7:51 AM AKST 5:55 PM AKST
Astronomical Twilight 6:49 AM AKST 6:57 PM AKST
Moon 12:16 PM AKST (1/23) 8:08 AM AKST (1/23)
Length of Visible Light 7h 45m
Length of Day
5h 19m
Waxing Gibbous, 90% of the Moon is Illuminated
Jan 23
Waxing Gibbous
Jan 26
Full
Feb 3
Last Quarter
Feb 9
New
Feb 17
First Quarter

Hourly Weather History & Observations

Time (AKST) Temp. Windchill Dew Point Humidity Pressure Visibility Wind Dir Wind Speed Gust Speed Precip Events Conditions
12:16 AM -2.2 °F -19.9 °F -16.6 °F 50% 30.07 in 10.0 mi NE 11.5 mph - N/A   Clear
12:36 AM -2.2 °F -19.9 °F -16.6 °F 50% 30.07 in 10.0 mi NE 11.5 mph 16.1 mph N/A   Clear
12:56 AM -4.0 °F -21.2 °F -16.6 °F 55% 30.06 in 10.0 mi NE 10.4 mph - N/A   Clear
1:16 AM -4.0 °F -21.2 °F -16.6 °F 55% 30.06 in 10.0 mi NE 10.4 mph - N/A   Clear
1:36 AM -4.0 °F -22.1 °F -16.6 °F 55% 30.05 in 10.0 mi NE 11.5 mph - N/A   Clear
1:56 AM -4.0 °F -22.1 °F -16.6 °F 55% 30.05 in 10.0 mi NE 11.5 mph - N/A   Clear
2:36 AM -4.0 °F -21.2 °F -16.6 °F 55% 30.03 in 10.0 mi ENE 10.4 mph - N/A   Clear
2:56 AM -4.0 °F -22.1 °F -16.6 °F 55% 30.03 in 10.0 mi NE 11.5 mph - N/A   Clear
3:16 AM -4.0 °F -22.1 °F -18.4 °F 50% 30.02 in 10.0 mi ENE 11.5 mph 17.3 mph N/A   Clear
3:36 AM -4.0 °F -22.1 °F -18.4 °F 50% 30.02 in 10.0 mi NE 11.5 mph - N/A   Clear
3:56 AM -5.8 °F -24.4 °F -18.4 °F 55% 30.01 in 10.0 mi ENE 11.5 mph - N/A   Clear
4:16 AM -5.8 °F -24.4 °F -18.4 °F 55% 30.01 in 10.0 mi NE 11.5 mph - N/A   Clear
4:36 AM -5.8 °F -22.4 °F -18.4 °F 55% 30.00 in 10.0 mi ENE 9.2 mph - N/A   Clear
4:56 AM -5.8 °F -24.4 °F -16.6 °F 60% 30.00 in 10.0 mi ENE 11.5 mph - N/A   Clear
5:16 AM -5.8 °F -24.4 °F -18.4 °F 55% 29.99 in 10.0 mi NE 11.5 mph 16.1 mph N/A   Clear
5:36 AM -5.8 °F -26.8 °F -18.4 °F 55% 29.99 in 10.0 mi ENE 15.0 mph - N/A   Clear
5:56 AM -5.8 °F -23.4 °F -18.4 °F 55% 29.99 in 10.0 mi ENE 10.4 mph 18.4 mph N/A   Clear
6:16 AM -5.8 °F -26.0 °F -18.4 °F 55% 29.99 in 10.0 mi ENE 13.8 mph 21.9 mph N/A   Clear
6:36 AM -5.8 °F -26.0 °F -18.4 °F 55% 29.99 in 10.0 mi ENE 13.8 mph 24.2 mph N/A   Clear
6:56 AM -5.8 °F -26.8 °F -18.4 °F 55% 29.98 in 10.0 mi ENE 15.0 mph 18.4 mph N/A   Clear
7:16 AM -5.8 °F -26.8 °F -18.4 °F 55% 29.98 in 10.0 mi ENE 15.0 mph 21.9 mph N/A   Clear
7:36 AM -5.8 °F -24.4 °F -20.2 °F 50% 29.98 in 10.0 mi ENE 11.5 mph 19.6 mph N/A   Clear
7:56 AM -7.6 °F -26.6 °F -20.2 °F 54% 29.98 in 10.0 mi ENE 11.5 mph 17.3 mph N/A   Clear
8:16 AM -7.6 °F -28.3 °F -20.2 °F 54% 29.98 in 10.0 mi ENE 13.8 mph 19.6 mph N/A   Clear
8:36 AM -7.6 °F -27.5 °F -20.2 °F 54% 29.98 in 10.0 mi ENE 12.7 mph 20.7 mph N/A   Clear
9:16 AM -7.6 °F -27.5 °F -20.2 °F 54% 29.97 in 10.0 mi ENE 12.7 mph 23.0 mph N/A   Clear
9:36 AM -7.6 °F -29.1 °F -22.0 °F 50% 29.97 in 10.0 mi ENE 15.0 mph 20.7 mph N/A   Clear
9:56 AM -7.6 °F -28.3 °F -22.0 °F 50% 29.98 in 10.0 mi ENE 13.8 mph 21.9 mph N/A   Clear
10:16 AM -9.4 °F -30.6 °F -22.0 °F 54% 29.98 in 10.0 mi ENE 13.8 mph 20.7 mph N/A   Clear
10:36 AM -9.4 °F -31.4 °F -22.0 °F 54% 29.98 in 10.0 mi ENE 15.0 mph 23.0 mph N/A   Clear
10:56 AM -9.4 °F -31.4 °F -22.0 °F 54% 29.98 in 10.0 mi ENE 15.0 mph 19.6 mph N/A   Clear
11:16 AM -9.4 °F -29.8 °F -22.0 °F 54% 29.97 in 10.0 mi ENE 12.7 mph 19.6 mph N/A   Clear
11:36 AM -9.4 °F -32.1 °F -22.0 °F 54% 29.97 in 10.0 mi ENE 16.1 mph 21.9 mph N/A   Clear
11:56 AM -9.4 °F -34.1 °F -22.0 °F 54% 29.97 in 10.0 mi ENE 19.6 mph 27.6 mph N/A   Clear
12:16 PM -9.4 °F -32.1 °F -22.0 °F 54% 29.97 in 10.0 mi ENE 16.1 mph 24.2 mph N/A   Clear
12:36 PM -9.4 °F -32.8 °F -22.0 °F 54% 29.96 in 10.0 mi ENE 17.3 mph 24.2 mph N/A   Clear
12:56 PM -9.4 °F -31.4 °F -23.8 °F 49% 29.96 in 10.0 mi ENE 15.0 mph 21.9 mph N/A   Clear
1:16 PM -9.4 °F -33.5 °F -23.8 °F 49% 29.96 in 10.0 mi ENE 18.4 mph 31.1 mph N/A   Clear
1:36 PM -9.4 °F -32.8 °F -23.8 °F 49% 29.96 in 10.0 mi ENE 17.3 mph 25.3 mph N/A   Clear
2:16 PM -9.4 °F -30.6 °F -23.8 °F 49% 29.96 in 10.0 mi ENE 13.8 mph 20.7 mph N/A   Clear
2:36 PM -11.2 °F -32.1 °F -23.8 °F 54% 29.96 in 10.0 mi ENE 12.7 mph 21.9 mph N/A   Clear
2:56 PM -11.2 °F -33.7 °F -23.8 °F 54% 29.96 in 10.0 mi ENE 15.0 mph 19.6 mph N/A   Clear
3:16 PM -11.2 °F -32.1 °F -23.8 °F 54% 29.95 in 10.0 mi NE 12.7 mph 20.7 mph N/A   Clear
3:36 PM -11.2 °F -32.1 °F -25.6 °F 49% 29.96 in 10.0 mi ENE 12.7 mph 19.6 mph N/A   Clear
3:56 PM -11.2 °F -32.9 °F -23.8 °F 54% 29.96 in 10.0 mi NE 13.8 mph 21.9 mph N/A   Clear
4:16 PM -11.2 °F -32.9 °F -23.8 °F 54% 29.96 in 10.0 mi ENE 13.8 mph - N/A   Clear
4:36 PM -11.2 °F -31.1 °F -23.8 °F 54% 29.96 in 10.0 mi ENE 11.5 mph 21.9 mph N/A   Clear
4:56 PM -11.2 °F -35.8 °F -23.8 °F 54% 29.97 in 10.0 mi ENE 18.4 mph 27.6 mph N/A   Clear
5:16 PM -11.2 °F -33.7 °F -23.8 °F 54% 29.97 in 10.0 mi ENE 15.0 mph 24.2 mph N/A   Clear
5:36 PM -13.0 °F -36.0 °F -25.6 °F 53% 29.97 in 10.0 mi ENE 15.0 mph 21.9 mph N/A   Clear
6:16 PM -11.2 °F -34.4 °F -23.8 °F 54% 29.97 in 10.0 mi ENE 16.1 mph 21.9 mph N/A   Mostly Cloudy
6:36 PM -13.0 °F -36.0 °F -23.8 °F 59% 29.97 in 10.0 mi ENE 15.0 mph 20.7 mph N/A   Scattered Clouds
6:56 PM -13.0 °F -36.0 °F -23.8 °F 59% 29.97 in 10.0 mi ENE 15.0 mph 21.9 mph N/A   Mostly Cloudy
7:56 PM -11.2 °F -35.2 °F -23.8 °F 54% 29.98 in 10.0 mi ENE 17.3 mph 24.2 mph N/A   Overcast
8:16 PM -11.2 °F -35.8 °F -23.8 °F 54% 29.98 in 10.0 mi ENE 18.4 mph 26.5 mph N/A   Overcast
8:36 PM -11.2 °F -33.7 °F -23.8 °F 54% 29.98 in 10.0 mi ENE 15.0 mph 20.7 mph N/A   Overcast
8:56 PM - - - N/A% 29.98 in 10.0 mi ENE 15.0 mph 21.9 mph N/A   Overcast
9:16 PM -13.0 °F -33.4 °F -25.6 °F 53% 29.99 in 10.0 mi ENE 11.5 mph 23.0 mph N/A   Overcast
9:36 PM -13.0 °F -34.3 °F -25.6 °F 53% 30.00 in 10.0 mi ENE 12.7 mph 19.6 mph N/A   Overcast
9:56 PM -13.0 °F -35.2 °F -25.6 °F 53% 30.00 in 10.0 mi ENE 13.8 mph 18.4 mph N/A   Scattered Clouds
10:16 PM -14.8 °F -35.6 °F -25.6 °F 58% 30.00 in 10.0 mi ENE 11.5 mph 19.6 mph N/A   Clear
10:36 PM -13.0 °F -36.0 °F -23.8 °F 59% 30.00 in 10.0 mi ENE 15.0 mph 21.9 mph N/A   Clear
10:56 PM -14.8 °F -37.5 °F -23.8 °F 64% 30.00 in 10.0 mi ENE 13.8 mph - N/A   Clear
11:16 PM -14.8 °F -33.5 °F -23.8 °F 64% 30.00 in 10.0 mi ENE 9.2 mph 17.3 mph N/A   Clear
11:36 PM -13.0 °F -34.3 °F -23.8 °F 59% 30.01 in 10.0 mi ENE 12.7 mph 18.4 mph N/A   Clear
11:56 PM -13.0 °F -32.4 °F -23.8 °F 59% 30.00 in 10.0 mi ENE 10.4 mph 19.6 mph N/A   Clear